30.06.2024;16:00;7
30.06.2024;15:00;7
30.06.2024;14:00;9
30.06.2024;13:00;9
30.06.2024;12:00;9
30.06.2024;11:00;10
30.06.2024;10:00;12
30.06.2024;09:00;16
30.06.2024;08:00;22
30.06.2024;07:00;27
30.06.2024;06:00;33
30.06.2024;05:00;34
30.06.2024;04:00;35
30.06.2024;03:00;41
30.06.2024;02:00;35
30.06.2024;01:00;30
29.06.2024;24:00;29
29.06.2024;23:00;28
29.06.2024;22:00;28
29.06.2024;21:00;21
29.06.2024;20:00;18
29.06.2024;19:00;18
29.06.2024;18:00;20
29.06.2024;17:00;23
29.06.2024;16:00;22
29.06.2024;15:00;19
29.06.2024;14:00;17
29.06.2024;13:00;17
29.06.2024;12:00;18
29.06.2024;11:00;18
29.06.2024;10:00;19
29.06.2024;09:00;19
29.06.2024;08:00;22
29.06.2024;07:00;22
29.06.2024;06:00;22
29.06.2024;05:00;22
29.06.2024;04:00;26
29.06.2024;03:00;32
29.06.2024;02:00;28
29.06.2024;01:00;23
28.06.2024;24:00;16
28.06.2024;23:00;16
28.06.2024;22:00;16
28.06.2024;21:00;15
28.06.2024;20:00;13
28.06.2024;19:00;10
28.06.2024;18:00;12
28.06.2024;17:00;15
28.06.2024;16:00;12
28.06.2024;15:00;10
28.06.2024;14:00;12
28.06.2024;13:00;13
28.06.2024;12:00;13
28.06.2024;11:00;10
28.06.2024;10:00;7
28.06.2024;09:00;6
28.06.2024;08:00;10
28.06.2024;07:00;17
28.06.2024;06:00;20
28.06.2024;05:00;20
28.06.2024;04:00;15
28.06.2024;03:00;11
28.06.2024;02:00;11
28.06.2024;01:00;14
27.06.2024;24:00;17
27.06.2024;23:00;18
27.06.2024;22:00;16
27.06.2024;21:00;13
27.06.2024;20:00;15
27.06.2024;19:00;20
27.06.2024;18:00;21
27.06.2024;17:00;21
27.06.2024;16:00;20
27.06.2024;15:00;15
27.06.2024;14:00;12
27.06.2024;13:00;13
27.06.2024;12:00;17
27.06.2024;11:00;16
27.06.2024;10:00;12
27.06.2024;09:00;10
27.06.2024;08:00;10
27.06.2024;07:00;11
27.06.2024;06:00;11
27.06.2024;05:00;14
27.06.2024;04:00;12
27.06.2024;03:00;10
27.06.2024;02:00;11
27.06.2024;01:00;12
26.06.2024;24:00;12
26.06.2024;23:00;12
26.06.2024;22:00;12
26.06.2024;21:00;12
26.06.2024;20:00;14
26.06.2024;19:00;15
26.06.2024;18:00;21
26.06.2024;17:00;22
26.06.2024;16:00;24
26.06.2024;15:00;23
26.06.2024;14:00;20
26.06.2024;13:00;22
26.06.2024;12:00;20
26.06.2024;11:00;18
26.06.2024;10:00;19
26.06.2024;09:00;17
26.06.2024;08:00;15
26.06.2024;07:00;16
26.06.2024;06:00;22
26.06.2024;05:00;26
26.06.2024;04:00;26
26.06.2024;03:00;26
26.06.2024;02:00;24
26.06.2024;01:00;23
25.06.2024;24:00;24
25.06.2024;23:00;25
25.06.2024;22:00;25
25.06.2024;21:00;22
25.06.2024;20:00;22
25.06.2024;19:00;19
25.06.2024;18:00;18
25.06.2024;17:00;17
25.06.2024;16:00;16
25.06.2024;15:00;14
25.06.2024;14:00;15
25.06.2024;13:00;14
25.06.2024;12:00;12
25.06.2024;11:00;11
25.06.2024;10:00;11
25.06.2024;09:00;12
25.06.2024;08:00;13
25.06.2024;07:00;13
25.06.2024;06:00;12
25.06.2024;05:00;11
25.06.2024;04:00;12
25.06.2024;03:00;13
25.06.2024;02:00;12
25.06.2024;01:00;13
